This is the latest recevied weather packets stored in our database for station/object AB4CZ-1. If no packets are shown the sender has not sent any weather packets the latest 1 day(s).
| Time | Temp. | Humidity | Pressure | Rain* | Wind** | Luminosity | Snow |
|---|---|---|---|---|---|---|---|
| 1778045193 | 21.67° C | 54% | 1014.1 hPa | 0 mm | 0 m/s | - | - |
| 1778044592 | 21.67° C | 53% | 1014 hPa | 0 mm | 0 m/s | - | - |
| 1778044433 | 21.67° C | 55% | 1014.1 hPa | 0 mm | 0 m/s | - | - |
| 1778044429 | 21.67° C | 56% | 1013.9 hPa | 0 mm | 0 m/s | - | - |
| 1778044293 | 21.67° C | 55% | 1014.1 hPa | 0 mm | 0 m/s | - | - |
| 1778043995 | 21.67° C | 56% | 1013.9 hPa | 0 mm | 0 m/s | - | - |
| 1778043704 | 21.11° C | 56% | 1013.7 hPa | 0 mm | 0 m/s | - | - |
| 1778043492 | 21.11° C | 54% | 1013.8 hPa | 0 mm | 0 m/s | - | - |
| 1778043433 | 21.11° C | 54% | 1013.8 hPa | 0 mm | 0 m/s | - | - |
| 1778043093 | 21.11° C | 57% | 1013.7 hPa | 0 mm | 0 m/s | - | - |
| 1778042792 | 21.11° C | 57% | 1013.9 hPa | 0 mm | 0 m/s | - | - |
| 1778042492 | 21.11° C | 56% | 1014.1 hPa | 0 mm | 0 m/s | - | - |
| 1778042194 | 21.11° C | 57% | 1014.2 hPa | 0 mm | 0 m/s | - | - |
| 1778041980 | 21.11° C | 56% | 1014.3 hPa | 0 mm | 0 m/s | - | - |
| 1778041895 | 21.11° C | 56% | 1014.3 hPa | 0 mm | 0 m/s | - | - |
| 1778041593 | 21.11° C | 56% | 1014.3 hPa | 0 mm | 0 m/s | - | - |
| 1778041385 | 21.11° C | 57% | 1014.4 hPa | 0 mm | 0 m/s | - | - |
| 1778041293 | 21.11° C | 57% | 1014.4 hPa | 0 mm | 0 m/s | - | - |
| 1778040993 | 21.11° C | 56% | 1014.3 hPa | 0 mm | 0 m/s | - | - |
| 1778040692 | 21.11° C | 56% | 1014.2 hPa | 0 mm | 0 m/s | - | - |
| 1778040407 | 21.11° C | 56% | 1014.1 hPa | 0 mm | 0 m/s | - | - |
| 1778040270 | 21.11° C | 56% | 1014 hPa | 0 mm | 0 m/s | - | - |
| 1778040103 | 21.11° C | 56% | 1014 hPa | 0 mm | 0 m/s | - | - |
| 1778039890 | 21.11° C | 55% | 1014 hPa | 0 mm | 0 m/s | - | - |
| 1778039795 | 21.11° C | 55% | 1014 hPa | 0 mm | 0 m/s | - | - |
* Rain latest hour (hover to see other rain measurements)
** Current wind speed in m/s (hover to see current wind gust speed)